Вернуться в каталог

STARLINK-35585

АктивенСвязьVLEO
NORAD 66170·PAYLOAD·🇺🇸 United States

Запущен Oct 25, 2025 с Cape Canaveral Space Force Station

Loading…

Ближайшие Пролёты (ближайшие 24 часа)

TLE

СвежийSource: CelesTrak SupGP

Эпоха: Sep 15, 2026, 02:32 UTC

1 66170C 25240AA  26258.10604167 -.00022156  00000+0 -65446-3 0  2584
2 66170  53.1572 259.0259 0001249  97.6211 301.7448 15.34408695    12

Отслеживайте STARLINK-35585 в реальном времени с AllMySat

Download on the App Store